Simultaneous Nadir Overpasses (SNOs) Predictions

Prediction of SNOs near US between AQUA and NPP Satellite Orbit:

Table of predicted SNOs near US for the next 10.0 days since TLE Epoch: 5/24/2014
Index Date (AQUA) Time (AQUA) AQUA Lat,Lon Date (NPP) Time (NPP) NPP Lat,Lon Distance(km) Time Diff (sec)
1 05/24/2014 07:46:16 20.03, -89.59 05/24/2014 07:41:22 20.00, -89.48 11.59 294
2 05/24/2014 09:19:17 41.18,-108.63 05/24/2014 09:16:49 41.20,-108.81 15.37 148
3 05/27/2014 06:30:51 46.53, -65.03 05/27/2014 06:36:39 46.91, -67.03 157.82 348
4 05/27/2014 08:08:47 49.91, -88.41 05/27/2014 08:17:06 50.54, -90.83 186.14 499
5 05/29/2014 17:28:00 49.99, -67.85 05/29/2014 17:26:01 49.75, -69.28 105.87 119
6 05/29/2014 19:06:18 47.92, -91.73 05/29/2014 19:06:53 47.56, -93.71 153.67 35
7 05/29/2014 20:42:41 38.98,-113.35 05/29/2014 20:45:46 38.47,-115.77 217.37 185
8 06/01/2014 06:56:37 20.01, -77.18 06/01/2014 06:50:49 19.94, -76.80 40.98 348
9 06/01/2014 08:30:57 36.43, -97.69 06/01/2014 08:27:37 36.43, -97.68 0.70 200
10 06/01/2014 10:06:52 47.05,-118.88 06/01/2014 10:06:03 47.10,-119.28 30.66 49




NCC Satellite Simultaneous Nadir Overpasses (SNOs) Prediction Service
